Location: Noordwijk
(52.2400°N, 4.4500°E)
Time: 16:31:29
(UTC+00:00)

CAS-4A - Pass Details

Date: 12 December 2022
Orbit: 514 x 531 km, 43.0° (Epoch: 01 February)

Event Time Altitude Azimuth Distance (km) Brightness Sun altitude
Exits shadow 05:48:21 14° 229° (SW) 1,544 ? -16.2°
Maximum altitude 05:50:34 21° 189° (S) 1,236 ? -15.9°
Drops below altitude 10° 05:53:38 10° 140° (SE) 1,776 ? -15.4°
Sets 05:56:16 0° 124° (SE) 2,668 ? -15.0°
